FLOCK 3R-12 (43724 NORAD) Tracking and Keplerian Element Data

This shows tracking and keplerian element data for the satellite.

Feedback or suggestion? Click here.




ElementValue
Catalog43724
NameFLOCK 3R-12
Epoch Orbit22250
Epoch Day324.82332636
Epoch Year2022
RAAN53.0155
Inclination97.3478
Eccentricity0.0009113
Argument of Perigee203.7962
Mean Anonmoly156.2877
Mean Motion15.65476704
Decay Rate0.00123401
L11 43724U 18096F 22324.82332636 .00123401 00000+0 12178-2 0 9991
L22 43724 97.3478 53.0155 0009113 203.7962 156.2877 15.65476704222504



Live tracking and technical data element details for FLOCK 3R-12 (NORAD 43724). FLOCK 3R-12 can be tracked NOW for your location showing map with azimuth and elevation plus other details from your city location.







IsCatalogInMostPopularTable: catalog: 43724, numindb: 429
Update: records affected: 1



GetName: 43724 FLOCK 3R-12

Hit Count: updated at: Sat, 17 May 2025 09:28:47 GMT